Terminal Aerodrome Forecast
Issued by NWS Sterling, VA

Current Version | Previous Version | Graphics & Text | Print | Product List | Glossary On
Versions: 1 2 3 4 5 6 7 8 9 10 11 12 13 14 15 16 17 18 19 20 21
000
FTUS41 KLWX 291720
TAFMRB
TAF
KMRB 291720Z 2918/3018 23007KT P6SM FEW050
     FM292100 17007KT P6SM SCT050
     FM300300 VRB03KT P6SM BKN100
     FM301400 19007KT P6SM BKN080=

USA.gov is the U.S. government's official web portal to all federal, state and local government web resources and services.